Location: ????????
(55.7667°N, 37.4833°E)
Time: 09:41:08
(UTC+00:00)

NOSS 3-1 (C) - Pass Details

Date: 19 May 2025
Orbit: 632 x 1571 km, 63.4° (Epoch: 02 June)

Event Time Altitude Azimuth Distance (km) Brightness Sun altitude
Rises 18:31:26 0° 192° (SSW) 3,004 5.7 -5.7°
Reaches altitude 10° 18:33:46 10° 182° (S) 2,163 4.9 -5.9°
Maximum altitude 18:38:04 32° 120° (ESE) 1,328 3.8 -6.3°
Drops below altitude 10° 18:43:09 10° 59° (ENE) 2,582 5.7 -6.8°
Sets 18:46:11 0° 51° (NE) 3,689 6.6 -7.0°
